Regional Weather Roundup
Issued by NWS

Home | Current Version | Previous Version | Graphics & Text | Print | Product List | Glossary Off
Versions: 1 2 3 4 5 6 7 8 9 10 11 12 13 14 15 16 17 18 19 20 21 22 23 24 25 26 27 28 29 30 31 32 33 34 35 36 37 38 39 40 41 42 43 44 45 46 47 48 49 50

000
ASUS43 KDMX 020807
RWRIA

WEATHER ROUNDUP FOR IOWA
NATIONAL WEATHER SERVICE DES MOINES IA
300 AM CDT THU JUL 02 2015

NOTE: "FAIR" INDICATES FEW OR NO CLOUDS BELOW 12,000 FEET WITH NO
SIGNIFICANT WEATHER AND/OR OBSTRUCTIONS TO VISIBILITY.

* - THESE STATIONS ARE NOT NWS STATIONS...THUS NOT UNDER NWS
QUALITY CONTROL.  THEY ALSO DO NOT REPORT WEATHER SUCH
AS PRECIPITATION OR FOG.

IAZ001>003-012>014-020>022-031>034-043>046-020900-
   NORTHWEST IOWA

CITY           SKY/WX    TMP DP  RH WIND       PRES   REMARKS
CARROLL *      CLOUDY    57  55  94 NE3       29.97S
CHEROKEE *     PTCLDY    55  55 100 CALM      29.97F
DENISON *      CLOUDY    57  55  94 E7        29.93F
LE MARS *        N/A     61  57  88 E7        29.97S
ORANGE CITY *  CLEAR     55  52  88 E7        29.97S
SHELDON *      CLOUDY    55  55 100 E8        29.97S
SIOUX CITY     CLEAR     61  53  75 E8        29.96R
SPENCER        CLEAR     53  49  86 E3        29.99F
STORM LAKE *   CLEAR     54  54 100 E6        29.98F
$$

IAZ055>058-069>071-079>083-090>094-020900-
   SOUTHWEST IOWA

CITY           SKY/WX    TMP DP  RH WIND       PRES   REMARKS
ATLANTIC *     MOCLDY    61  59  94 NE7       29.95S
AUDUBON *      CLEAR     57  54  88 E3        29.98S
CLARINDA *     CLOUDY    68  63  83 NE5       29.94S
COUNCIL BLFS * CLOUDY    64  61  88 NE9       29.93F
CRESTON *      CLOUDY    63  61  94 NE12G18   29.94F
HARLAN  *      MOCLDY    61  61 100 E8        29.98F
LAMONI         PTCLDY    64  59  83 NE8       29.92F
RED OAK *      CLOUDY    66  61  82 NE10      29.93F
SHENANDOAH *   CLOUDY    68  64  88 NE8       29.93R
$$

IAZ047>049-059>061-072>074-084-020900-
   CENTRAL IOWA

CITY           SKY/WX    TMP DP  RH WIND       PRES   REMARKS
AMES           CLEAR     57  53  86 E5        29.97S
ANKENY *       CLEAR     57  55  94 CALM      29.96S
CHARITON *     CLOUDY    63  59  88 NE7       29.94F
DES MOINES     CLEAR     62  55  77 E9        29.95S
GRINNELL*      PTCLDY    57  54  88 NE6       29.98S
KNOXVILLE *    MOCLDY    61  57  88 NE7       29.94F
MARSHALLTOWN   CLEAR     54  52  93 E7        29.97F
PELLA *        MOCLDY    59  59 100 NE3       29.96S
PERRY *          N/A     59  54  82 E7        29.97S
$$

IAZ004>006-015-016-023>025-035-036-020900-
   NORTH CENTRAL IOWA

CITY           SKY/WX    TMP DP  RH WIND       PRES   REMARKS
ALGONA *       CLOUDY    55  52  88 CALM      30.00F
CLARION *      CLEAR     54  52  94 E7        29.99S
ESTHERVILLE    CLEAR     50  49  96 E6        29.99F
FORT DODGE *   CLEAR     54  50  87 E6        29.97F
MASON CITY     CLEAR     50  48  93 CALM      30.02F
FOREST CITY *  CLEAR     46  46 100 CALM      30.00F
IOWA FALLS *     N/A     55  52  88 E5        30.00S
$$

IAZ007>011-017>019-026>030-037>042-050>054-066-020900-
   NORTHEAST IOWA

CITY           SKY/WX    TMP DP  RH WIND       PRES   REMARKS
CEDAR RAPIDS   MOCLDY    58  53  84 E9        29.97S
CHARLES CITY * CLEAR     52  52 100 NE6       30.01F
CLINTON *      CLEAR     55  52  88 E7        30.01F
DECORAH *        N/A    N/A N/A N/A MISG        N/A
DUBUQUE        CLEAR     54  52  93 SE5       30.01R
MONTICELLO *   CLEAR     54 N/A N/A E3        30.00R
OELWEIN *      CLEAR     52  52 100 NE6       30.01S
WATERLOO       MOCLDY    53  52  96 CALM      29.99S
$$

IAZ064-065-067-068-078-020900-
   EAST CENTRAL IOWA

CITY           SKY/WX    TMP DP  RH WIND       PRES   REMARKS
DAVENPORT      CLEAR     57  53  86 E8        29.98F
IOWA CITY      CLOUDY    61  54  77 E7        29.98R
MT. PLEASANT * CLOUDY    64  55  72 NE8       29.94S
MUSCATINE *    CLOUDY    64  57  77 E9G17     29.96S
QUAD CITIES    PTCLDY    60  55  83 E12       29.97F
$$

IAZ062-063-075>077-085>089-095>099-020900-
   SOUTHEAST IOWA

CITY           SKY/WX    TMP DP  RH WIND       PRES   REMARKS
BURLINGTON     MOCLDY    64  61  90 E7        29.93F
FAIRFIELD *    CLEAR     61  57  88 NE7       29.94S
FORT MADISON * CLEAR     63  61  94 E8        29.93F
KEOKUK *       PTCLDY    66  63  88 NE9       29.90F
OSKALOOSA *      N/A     59  55  88 NE6       29.95F
CENTERVILLE *  MOCLDY    63  61  94 NE7       29.94S
OTTUMWA        CLEAR     60  57  89 NE7       29.93S
WASHINGTON *   CLOUDY    59  57  94 NE7       29.96F
$$

ABBREVIATIONS USED IN REMARKS
   TC - TEMPERATURES IN CELSIUS
  WCI - WIND CHILL INDEX
   HX - HEAT INDEX
  VSB - VISIBILITY
$$




USA.gov is the U.S. government's official web portal to all federal, state and local government web resources and services.